Voltar ao catálogo

FENGYUN 1C DEB

AtivoSSO
NORAD 30498·DEBRIS·🇨🇳 China

Lançado May 10, 1999 de Taiyuan Satellite Launch Center

Loading…

Próximas Passagens (próximas 24 horas)

TLE

AtualizadoSource: Space-Track

Época: Sep 14, 2026, 02:46 UTC

1 30498U 99025AHL 26257.11532078  .00001580  00000-0  92225-3 0  9995
2 30498  99.2270 318.8913 0100650 112.1452 279.0265 14.07441455996411

Acompanhe FENGYUN 1C DEB em tempo real com AllMySat

Download on the App Store